Location: ????????
(54.9045°N, 39.1041°E)
Time: 15:52:24
(UTC+00:00)

ISS - Pass Details

Date: 27 June 2024
Orbit: 409 x 423 km, 51.6° (Epoch: 24 July)

Event Time Altitude Azimuth Distance (km) Brightness Sun altitude
Exits shadow 23:27:01 - 184° (S) 1,578 -1.4 -7.7°
Reaches altitude 10° 23:27:25 10° 178° (S) 1,482 -1.5 -7.7°
Maximum altitude 23:29:14 14° 145° (SE) 1,265 -1.6 -7.6°
Drops below altitude 10° 23:31:04 10° 112° (ESE) 1,493 -0.9 -7.4°
Sets 23:33:54 0° 86° (E) 2,365 0.6 -7.2°
